| time (UTC) | temp F | wind direction | speed MPH | gust MPH | rain 1hr in | rain 24hr in | rain mn in | humidity % | barometer mb |
| 20260831183025 | 79 | 0 | 0.0 | 0.0 | 0.00 | 0.00 | 0.00 | 69 | 1023.5 |
| 20260831182525 | 78 | 0 | 0.0 | 2.0 | 0.00 | 0.00 | 0.00 | 69 | 1023.6 |
| 20260831182025 | 77 | 0 | 0.0 | 8.0 | 0.00 | 0.00 | 0.00 | 67 | 1023.6 |
| 20260831181525 | 77 | 313 | 1.0 | 9.0 | 0.00 | 0.00 | 0.00 | 67 | 1023.7 |
| 20260831181025 | 76 | 313 | 3.0 | 10.0 | 0.00 | 0.00 | 0.00 | 77 | 1023.8 |
| 20260831180525 | 77 | 313 | 4.0 | 10.0 | 0.00 | 0.00 | 0.00 | 79 | 1023.7 |
| 20260831180026 | 78 | 311 | 5.0 | 11.0 | 0.00 | 0.00 | 0.00 | 75 | 1023.7 |
| 20260831175525 | 80 | 309 | 6.0 | 11.0 | 0.00 | 0.00 | 0.00 | 70 | 1023.7 |
| 20260831175026 | 83 | 295 | 4.0 | 7.0 | 0.00 | 0.00 | 0.00 | 68 | 1023.8 |
| 20260831174525 | 85 | 0 | 0.0 | 0.0 | 0.00 | 0.00 | 0.00 | 64 | 1023.9 |
| 20260831173805 | 85 | 0 | 0.0 | 4.0 | 0.00 | 0.00 | 0.00 | 63 | 1023.9 |
| 20260831173305 | 85 | 295 | 1.0 | 4.0 | 0.00 | 0.00 | 0.00 | 62 | 1023.8 |
| 20260831172805 | 85 | 295 | 2.0 | 4.0 | 0.00 | 0.00 | 0.00 | 59 | 1023.9 |
| 20260831172308 | 85 | 295 | 1.0 | 4.0 | 0.00 | 0.00 | 0.00 | 64 | 1023.8 |
| 20260831171811 | 84 | 295 | 2.0 | 4.0 | 0.00 | 0.00 | 0.00 | 63 | 1023.9 |
| 20260831171310 | 84 | 295 | 2.0 | 4.0 | 0.00 | 0.00 | 0.00 | 65 | 1023.9 |
| 20260831170805 | 84 | 0 | 0.0 | 4.0 | 0.00 | 0.00 | 0.00 | 69 | 1023.8 |
| 20260831170305 | 84 | 0 | 0.0 | 7.0 | 0.00 | 0.00 | 0.00 | 67 | 1023.8 |
| 20260831165805 | 84 | 295 | 1.0 | 7.0 | 0.00 | 0.00 | 0.00 | 66 | 1023.8 |
| 20260831165315 | 84 | 0 | 0.0 | 4.0 | 0.00 | 0.00 | 0.00 | 68 | 1023.8 |
| 20260831164805 | 84 | 0 | 0.0 | 4.0 | 0.00 | 0.00 | 0.00 | 68 | 1023.9 |
| 20260831164447 | 84 | 0 | 0.0 | 4.0 | 0.00 | 0.00 | 0.00 | 68 | 1024.0 |
| 20260831164305 | 84 | 0 | 0.0 | 4.0 | 0.00 | 0.00 | 0.00 | 68 | 1024.0 |
| 20260831163805 | 84 | 0 | 0.0 | 4.0 | 0.00 | 0.00 | 0.00 | 69 | 1024.1 |
| 20260831163305 | 84 | 0 | 0.0 | 7.0 | 0.00 | 0.00 | 0.00 | 70 | 1024.1 |
| 20260831162805 | 83 | 295 | 1.0 | 7.0 | 0.00 | 0.00 | 0.00 | 70 | 1024.2 |
| 20260831162306 | 83 | 295 | 2.0 | 7.0 | 0.00 | 0.00 | 0.00 | 69 | 1024.2 |
| 20260831161805 | 84 | 295 | 1.0 | 7.0 | 0.00 | 0.00 | 0.00 | 69 | 1024.2 |
| 20260831161305 | 84 | 0 | 0.0 | 4.0 | 0.00 | 0.00 | 0.00 | 68 | 1024.3 |
| 20260831160805 | 83 | 0 | 0.0 | 4.0 | 0.00 | 0.00 | 0.00 | 67 | 1024.2 |
| 20260831160305 | 84 | 0 | 0.0 | 1.0 | 0.00 | 0.00 | 0.00 | 71 | 1024.1 |
| 20260831155845 | 83 | 0 | 0.0 | 3.0 | 0.00 | 0.00 | 0.00 | 70 | 1024.2 |
| 20260831155805 | 83 | 0 | 0.0 | 3.0 | 0.00 | 0.00 | 0.00 | 70 | 1024.2 |
| 20260831155306 | 83 | 0 | 0.0 | 3.0 | 0.00 | 0.00 | 0.00 | 69 | 1024.3 |
| 20260831154806 | 83 | 0 | 0.0 | 0.0 | 0.00 | 0.00 | 0.00 | 68 | 1024.2 |
| 20260831154305 | 82 | 0 | 0.0 | 3.0 | 0.00 | 0.00 | 0.00 | 72 | 1024.3 |
| 20260831153805 | 82 | 0 | 0.0 | 3.0 | 0.00 | 0.00 | 0.00 | 75 | 1024.3 |
| 20260831153305 | 81 | 0 | 0.0 | 2.0 | 0.00 | 0.00 | 0.00 | 76 | 1024.3 |
| 20260831152805 | 81 | 0 | 0.0 | 4.0 | 0.00 | 0.00 | 0.00 | 75 | 1024.3 |
| 20260831152308 | 80 | 295 | 2.0 | 5.0 | 0.00 | 0.00 | 0.00 | 75 | 1024.3 |
| 20260831151805 | 80 | 295 | 1.0 | 5.0 | 0.00 | 0.00 | 0.00 | 75 | 1024.3 |
| 20260831151307 | 80 | 0 | 0.0 | 4.0 | 0.00 | 0.00 | 0.00 | 76 | 1024.3 |
| 20260831150806 | 80 | 0 | 0.0 | 4.0 | 0.00 | 0.00 | 0.00 | 75 | 1024.4 |
| 20260831150307 | 80 | 0 | 0.0 | 3.0 | 0.00 | 0.00 | 0.00 | 77 | 1024.3 |
| 20260831145807 | 80 | 0 | 0.0 | 4.0 | 0.00 | 0.00 | 0.00 | 76 | 1024.3 |
| 20260831145307 | 79 | 0 | 0.0 | 4.0 | 0.00 | 0.00 | 0.00 | 75 | 1024.3 |
| 20260831144805 | 80 | 0 | 0.0 | 4.0 | 0.00 | 0.00 | 0.00 | 75 | 1024.3 |
| 20260831144305 | 80 | 295 | 1.0 | 8.0 | 0.00 | 0.00 | 0.00 | 75 | 1024.3 |
| 20260831143805 | 80 | 0 | 0.0 | 8.0 | 0.00 | 0.00 | 0.00 | 76 | 1024.3 |
| 20260831143305 | 80 | 0 | 0.0 | 3.0 | 0.00 | 0.00 | 0.00 | 76 | 1024.3 |
| 20260831142807 | 79 | 0 | 0.0 | 2.0 | 0.00 | 0.00 | 0.00 | 76 | 1024.2 |
| 20260831142306 | 79 | 0 | 0.0 | 0.0 | 0.00 | 0.00 | 0.00 | 79 | 1024.2 |
| 20260831141804 | 78 | 0 | 0.0 | 3.0 | 0.00 | 0.00 | 0.00 | 80 | 1024.2 |
| 20260831141308 | 77 | 0 | 0.0 | 3.0 | 0.00 | 0.00 | 0.00 | 81 | 1024.2 |
| 20260831140805 | 77 | 0 | 0.0 | 4.0 | 0.00 | 0.00 | 0.00 | 81 | 1024.1 |
| 20260831140307 | 76 | 0 | 0.0 | 4.0 | 0.00 | 0.00 | 0.00 | 82 | 1024.0 |
| 20260831135807 | 77 | 0 | 0.0 | 4.0 | 0.00 | 0.00 | 0.00 | 82 | 1024.0 |
| 20260831135315 | 77 | 0 | 0.0 | 3.0 | 0.00 | 0.00 | 0.00 | 81 | 1024.1 |
| 20260831134809 | 77 | 0 | 0.0 | 3.0 | 0.00 | 0.00 | 0.00 | 81 | 1024.0 |
| 20260831134306 | 76 | 0 | 0.0 | 3.0 | 0.00 | 0.00 | 0.00 | 81 | 1024.0 |
| 20260831133806 | 76 | 0 | 0.0 | 1.0 | 0.00 | 0.00 | 0.00 | 82 | 1024.1 |
| 20260831133305 | 76 | 0 | 0.0 | 2.0 | 0.00 | 0.00 | 0.00 | 83 | 1024.1 |
| 20260831132806 | 76 | 0 | 0.0 | 2.0 | 0.00 | 0.00 | 0.00 | 82 | 1024.1 |
| 20260831132307 | 76 | 0 | 0.0 | 4.0 | 0.00 | 0.00 | 0.00 | 82 | 1024.1 |
| 20260831131805 | 76 | 0 | 0.0 | 4.0 | 0.00 | 0.00 | 0.00 | 81 | 1024.1 |
| 20260831131305 | 76 | 0 | 0.0 | 4.0 | 0.00 | 0.00 | 0.00 | 82 | 1024.1 |
| 20260831130806 | 75 | 0 | 0.0 | 3.0 | 0.00 | 0.00 | 0.00 | 83 | 1024.1 |
| 20260831130304 | 75 | 0 | 0.0 | 2.0 | 0.00 | 0.00 | 0.00 | 84 | 1024.1 |
| 20260831125804 | 74 | 0 | 0.0 | 4.0 | 0.00 | 0.00 | 0.00 | 84 | 1024.0 |
| 20260831125306 | 74 | 0 | 0.0 | 5.0 | 0.00 | 0.00 | 0.00 | 85 | 1024.1 |
| 20260831124805 | 74 | 0 | 0.0 | 5.0 | 0.00 | 0.00 | 0.00 | 84 | 1024.1 |
| 20260831124305 | 74 | 0 | 0.0 | 5.0 | 0.00 | 0.00 | 0.00 | 84 | 1024.1 |
| 20260831123806 | 74 | 0 | 0.0 | 5.0 | 0.00 | 0.00 | 0.00 | 84 | 1024.0 |
| 20260831123304 | 74 | 0 | 0.0 | 5.0 | 0.00 | 0.00 | 0.00 | 84 | 1024.0 |
| 20260831122809 | 74 | 0 | 0.0 | 5.0 | 0.00 | 0.00 | 0.00 | 83 | 1024.1 |
| 20260831122306 | 74 | 295 | 1.0 | 5.0 | 0.00 | 0.00 | 0.00 | 84 | 1024.0 |
| 20260831121504 | 74 | 0 | 0.0 | 5.0 | 0.00 | 0.00 | 0.00 | 84 | 1024.0 |
| 20260831121004 | 74 | 0 | 0.0 | 5.0 | 0.00 | 0.00 | 0.00 | 84 | 1023.9 |
| 20260831120504 | 73 | 0 | 0.0 | 3.0 | 0.00 | 0.00 | 0.00 | 85 | 1023.8 |
| 20260831120006 | 73 | 0 | 0.0 | 10.0 | 0.00 | 0.00 | 0.00 | 86 | 1023.9 |
| 20260831115504 | 73 | 0 | 0.0 | 10.0 | 0.00 | 0.00 | 0.00 | 87 | 1023.9 |
| 20260831115004 | 72 | 0 | 0.0 | 3.0 | 0.00 | 0.00 | 0.00 | 88 | 1023.9 |
| 20260831114421 | 72 | 0 | 0.0 | 4.0 | 0.00 | 0.00 | 0.00 | 89 | 1023.9 |
| 20260831113922 | 72 | 0 | 0.0 | 4.0 | 0.00 | 0.00 | 0.00 | 88 | 1024.0 |
| 20260831113425 | 73 | 0 | 0.0 | 3.0 | 0.00 | 0.00 | 0.00 | 87 | 1023.9 |
| 20260831112921 | 73 | 0 | 0.0 | 1.0 | 0.00 | 0.00 | 0.00 | 87 | 1023.9 |
| 20260831112421 | 73 | 0 | 0.0 | 1.0 | 0.00 | 0.00 | 0.00 | 86 | 1023.9 |
| 20260831111924 | 73 | 0 | 0.0 | 3.0 | 0.00 | 0.00 | 0.00 | 86 | 1023.8 |
| 20260831111424 | 73 | 0 | 0.0 | 5.0 | 0.00 | 0.00 | 0.00 | 85 | 1023.8 |
| 20260831110921 | 73 | 0 | 0.0 | 5.0 | 0.00 | 0.00 | 0.00 | 85 | 1023.7 |
| 20260831110421 | 73 | 0 | 0.0 | 4.0 | 0.00 | 0.00 | 0.00 | 86 | 1023.7 |
| 20260831105931 | 73 | 0 | 0.0 | 9.0 | 0.00 | 0.00 | 0.00 | 85 | 1023.5 |
| 20260831105422 | 73 | 300 | 1.0 | 9.0 | 0.00 | 0.00 | 0.00 | 85 | 1023.6 |
| 20260831104922 | 73 | 0 | 0.0 | 4.0 | 0.00 | 0.00 | 0.00 | 85 | 1023.5 |
| 20260831104424 | 73 | 0 | 0.0 | 4.0 | 0.00 | 0.00 | 0.00 | 85 | 1023.5 |
| 20260831103921 | 72 | 0 | 0.0 | 4.0 | 0.00 | 0.00 | 0.00 | 85 | 1023.5 |
| 20260831103423 | 72 | 0 | 0.0 | 4.0 | 0.00 | 0.00 | 0.00 | 85 | 1023.5 |
| 20260831102922 | 72 | 0 | 0.0 | 5.0 | 0.00 | 0.00 | 0.00 | 85 | 1023.5 |
| 20260831102421 | 72 | 0 | 0.0 | 5.0 | 0.00 | 0.00 | 0.00 | 85 | 1023.5 |
| 20260831101921 | 72 | 0 | 0.0 | 3.0 | 0.00 | 0.00 | 0.00 | 86 | 1023.4 |
| 20260831101421 | 72 | 0 | 0.0 | 3.0 | 0.00 | 0.00 | 0.00 | 87 | 1023.3 |
| 20260831100924 | 71 | 0 | 0.0 | 2.0 | 0.00 | 0.00 | 0.00 | 87 | 1023.3 |
| 20260831100421 | 71 | 0 | 0.0 | 3.0 | 0.00 | 0.00 | 0.00 | 88 | 1023.3 |
| 20260831095922 | 71 | 0 | 0.0 | 3.0 | 0.00 | 0.00 | 0.00 | 89 | 1023.3 |
| 20260831095422 | 71 | 0 | 0.0 | 2.0 | 0.00 | 0.00 | 0.00 | 90 | 1023.2 |
| 20260831094926 | 71 | 0 | 0.0 | 2.0 | 0.00 | 0.00 | 0.00 | 90 | 1023.2 |
| 20260831094421 | 72 | 0 | 0.0 | 2.0 | 0.00 | 0.00 | 0.00 | 88 | 1023.2 |
| 20260831093921 | 73 | 0 | 0.0 | 2.0 | 0.00 | 0.00 | 0.00 | 85 | 1023.2 |
| 20260831093422 | 73 | 0 | 0.0 | 3.0 | 0.00 | 0.00 | 0.00 | 83 | 1023.2 |
| 20260831092921 | 73 | 0 | 0.0 | 3.0 | 0.00 | 0.00 | 0.00 | 83 | 1023.1 |
| 20260831092423 | 73 | 0 | 0.0 | 3.0 | 0.00 | 0.00 | 0.00 | 84 | 1023.1 |
| 20260831091921 | 73 | 0 | 0.0 | 3.0 | 0.00 | 0.00 | 0.00 | 84 | 1023.1 |
| 20260831091421 | 73 | 0 | 0.0 | 4.0 | 0.00 | 0.00 | 0.00 | 85 | 1023.1 |
| 20260831090921 | 73 | 0 | 0.0 | 4.0 | 0.00 | 0.00 | 0.00 | 85 | 1023.1 |
| 20260831090423 | 72 | 0 | 0.0 | 4.0 | 0.00 | 0.00 | 0.00 | 85 | 1023.1 |
| 20260831085922 | 72 | 0 | 0.0 | 7.0 | 0.00 | 0.00 | 0.00 | 86 | 1023.1 |
| 20260831085421 | 72 | 0 | 0.0 | 7.0 | 0.00 | 0.00 | 0.00 | 86 | 1023.2 |
| 20260831084921 | 72 | 0 | 0.0 | 2.0 | 0.00 | 0.00 | 0.00 | 86 | 1023.3 |
| 20260831084421 | 72 | 0 | 0.0 | 3.0 | 0.00 | 0.00 | 0.00 | 86 | 1023.2 |
| 20260831083921 | 72 | 0 | 0.0 | 3.0 | 0.00 | 0.00 | 0.00 | 86 | 1023.2 |
| 20260831083421 | 72 | 0 | 0.0 | 4.0 | 0.00 | 0.00 | 0.00 | 86 | 1023.2 |
| 20260831082921 | 72 | 0 | 0.0 | 4.0 | 0.00 | 0.00 | 0.00 | 86 | 1023.2 |
| 20260831082422 | 72 | 0 | 0.0 | 3.0 | 0.00 | 0.00 | 0.00 | 86 | 1023.2 |
| 20260831081924 | 72 | 0 | 0.0 | 4.0 | 0.00 | 0.00 | 0.00 | 86 | 1023.2 |
| 20260831081421 | 72 | 0 | 0.0 | 4.0 | 0.00 | 0.00 | 0.00 | 86 | 1023.2 |
| 20260831080921 | 72 | 0 | 0.0 | 2.0 | 0.00 | 0.00 | 0.00 | 86 | 1023.2 |
| 20260831080421 | 72 | 0 | 0.0 | 3.0 | 0.00 | 0.00 | 0.00 | 86 | 1023.2 |
| 20260831075922 | 72 | 0 | 0.0 | 4.0 | 0.00 | 0.00 | 0.00 | 87 | 1023.2 |
| 20260831075421 | 72 | 0 | 0.0 | 5.0 | 0.00 | 0.00 | 0.00 | 87 | 1023.1 |
| 20260831074923 | 72 | 0 | 0.0 | 11.0 | 0.00 | 0.00 | 0.00 | 87 | 1023.1 |
| 20260831074421 | 72 | 308 | 2.0 | 11.0 | 0.00 | 0.00 | 0.00 | 87 | 1023.1 |
| 20260831073921 | 72 | 306 | 3.0 | 9.0 | 0.00 | 0.00 | 0.00 | 88 | 1023.1 |
| 20260831073421 | 72 | 306 | 4.0 | 9.0 | 0.00 | 0.00 | 0.00 | 88 | 1023.1 |
| 20260831072921 | 72 | 304 | 4.0 | 8.0 | 0.00 | 0.00 | 0.00 | 88 | 1023.1 |
| 20260831072421 | 72 | 304 | 3.0 | 8.0 | 0.00 | 0.00 | 0.00 | 88 | 1023.1 |
| 20260831071921 | 72 | 303 | 2.0 | 8.0 | 0.00 | 0.00 | 0.00 | 88 | 1023.2 |
| 20260831071421 | 72 | 303 | 3.0 | 7.0 | 0.00 | 0.00 | 0.00 | 87 | 1023.2 |
| 20260831070921 | 72 | 303 | 3.0 | 7.0 | 0.00 | 0.00 | 0.00 | 87 | 1023.2 |
| 20260831070422 | 72 | 303 | 2.0 | 9.0 | 0.00 | 0.00 | 0.00 | 87 | 1023.2 |
| 20260831065922 | 73 | 303 | 3.0 | 9.0 | 0.00 | 0.00 | 0.00 | 87 | 1023.2 |
| 20260831065421 | 73 | 302 | 3.0 | 9.0 | 0.00 | 0.00 | 0.00 | 87 | 1023.2 |
| 20260831064923 | 73 | 302 | 3.0 | 9.0 | 0.00 | 0.00 | 0.00 | 87 | 1023.2 |
| 20260831064421 | 73 | 302 | 4.0 | 11.0 | 0.00 | 0.00 | 0.00 | 87 | 1023.3 |
| 20260831063922 | 73 | 302 | 5.0 | 11.0 | 0.00 | 0.00 | 0.00 | 86 | 1023.4 |
| 20260831063421 | 73 | 297 | 5.0 | 10.0 | 0.00 | 0.00 | 0.00 | 87 | 1023.4 |
| 20260831062930 | 73 | 295 | 5.0 | 10.0 | 0.00 | 0.00 | 0.00 | 86 | 1023.4 |
| 20260831062421 | 72 | 294 | 4.0 | 9.0 | 0.00 | 0.00 | 0.00 | 87 | 1023.5 |
| 20260831061921 | 72 | 288 | 5.0 | 9.0 | 0.00 | 0.00 | 0.00 | 87 | 1023.5 |
| 20260831061421 | 72 | 282 | 5.0 | 9.0 | 0.00 | 0.00 | 0.00 | 87 | 1023.6 |
| 20260831060921 | 72 | 280 | 3.0 | 9.0 | 0.00 | 0.00 | 0.00 | 88 | 1023.6 |
| 20260831060421 | 72 | 277 | 3.0 | 10.0 | 0.00 | 0.00 | 0.00 | 88 | 1023.6 |
| 20260831055922 | 72 | 277 | 3.0 | 10.0 | 0.00 | 0.00 | 0.00 | 88 | 1023.6 |
| 20260831055422 | 72 | 268 | 4.0 | 9.0 | 0.00 | 0.00 | 0.00 | 88 | 1023.7 |
| 20260831054922 | 72 | 267 | 4.0 | 9.0 | 0.00 | 0.00 | 0.00 | 89 | 1023.8 |
| 20260831054421 | 72 | 262 | 5.0 | 8.0 | 0.00 | 0.00 | 0.00 | 89 | 1023.8 |
| 20260831053921 | 72 | 254 | 3.0 | 7.0 | 0.00 | 0.00 | 0.00 | 89 | 1023.8 |
| 20260831053421 | 72 | 250 | 2.0 | 5.0 | 0.00 | 0.00 | 0.00 | 89 | 1023.8 |
| 20260831052921 | 72 | 249 | 1.0 | 5.0 | 0.00 | 0.00 | 0.00 | 89 | 1023.8 |
| 20260831052421 | 72 | 248 | 1.0 | 5.0 | 0.00 | 0.00 | 0.00 | 89 | 1023.8 |
| 20260831051921 | 72 | 0 | 0.0 | 5.0 | 0.00 | 0.00 | 0.00 | 89 | 1023.9 |
| 20260831051421 | 72 | 0 | 0.0 | 5.0 | 0.00 | 0.00 | 0.00 | 89 | 1023.9 |
| 20260831050921 | 72 | 0 | 0.0 | 4.0 | 0.00 | 0.00 | 0.00 | 89 | 1024.0 |
| 20260831050423 | 73 | 0 | 0.0 | 4.0 | 0.00 | 0.00 | 0.00 | 88 | 1023.9 |
| 20260831045921 | 72 | 0 | 0.0 | 3.0 | 0.00 | 0.00 | 0.00 | 88 | 1023.9 |
| 20260831045421 | 72 | 0 | 0.0 | 4.0 | 0.00 | 0.00 | 0.00 | 88 | 1023.9 |
| 20260831044922 | 72 | 0 | 0.0 | 4.0 | 0.00 | 0.00 | 0.00 | 88 | 1023.9 |
| 20260831044421 | 72 | 0 | 0.0 | 4.0 | 0.00 | 0.00 | 0.00 | 88 | 1024.0 |
| 20260831043921 | 72 | 0 | 0.0 | 2.0 | 0.00 | 0.00 | 0.00 | 88 | 1023.9 |
| 20260831043421 | 73 | 0 | 0.0 | 5.0 | 0.00 | 0.00 | 0.00 | 88 | 1024.0 |
| 20260831042927 | 72 | 0 | 0.0 | 5.0 | 0.00 | 0.00 | 0.00 | 88 | 1024.0 |
| 20260831042421 | 73 | 0 | 0.0 | 5.0 | 0.00 | 0.00 | 0.00 | 88 | 1024.0 |
| 20260831041923 | 73 | 0 | 0.0 | 5.0 | 0.00 | 0.00 | 0.00 | 89 | 1024.0 |
| 20260831041421 | 73 | 0 | 0.0 | 6.0 | 0.00 | 0.00 | 0.00 | 89 | 1024.1 |
| 20260831041001 | 73 | 0 | 0.0 | 6.0 | 0.00 | 0.00 | 0.00 | 88 | 1024.2 |
| 20260831040920 | 73 | 0 | 0.0 | 6.0 | 0.00 | 0.00 | 0.00 | 88 | 1024.2 |
| 20260831040423 | 73 | 0 | 0.0 | 5.0 | 0.00 | 0.00 | 0.00 | 88 | 1024.2 |
| 20260831035921 | 73 | 0 | 0.0 | 3.0 | 0.00 | 0.00 | 0.00 | 87 | 1024.3 |
| 20260831035421 | 73 | 0 | 0.0 | 3.0 | 0.00 | 0.00 | 0.00 | 87 | 1024.3 |
| 20260831034922 | 74 | 0 | 0.0 | 2.0 | 0.00 | 0.00 | 0.00 | 86 | 1024.3 |
| 20260831034421 | 74 | 0 | 0.0 | 2.0 | 0.00 | 0.00 | 0.00 | 84 | 1024.3 |
| 20260831033921 | 74 | 0 | 0.0 | 2.0 | 0.00 | 0.00 | 0.00 | 84 | 1024.3 |
| 20260831033430 | 74 | 0 | 0.0 | 2.0 | 0.00 | 0.00 | 0.00 | 84 | 1024.2 |
| 20260831032923 | 74 | 0 | 0.0 | 5.0 | 0.00 | 0.00 | 0.00 | 84 | 1024.2 |
| 20260831032421 | 74 | 0 | 0.0 | 5.0 | 0.00 | 0.00 | 0.00 | 84 | 1024.2 |
| 20260831031921 | 73 | 208 | 1.0 | 5.0 | 0.00 | 0.00 | 0.00 | 85 | 1024.2 |
| 20260831031421 | 73 | 0 | 0.0 | 6.0 | 0.00 | 0.00 | 0.00 | 85 | 1024.3 |
| 20260831030921 | 73 | 0 | 0.0 | 6.0 | 0.00 | 0.00 | 0.00 | 85 | 1024.3 |
| 20260831030421 | 73 | 0 | 0.0 | 2.0 | 0.00 | 0.00 | 0.00 | 85 | 1024.3 |
| 20260831025922 | 73 | 0 | 0.0 | 4.0 | 0.00 | 0.00 | 0.00 | 85 | 1024.4 |
| 20260831025421 | 73 | 0 | 0.0 | 4.0 | 0.00 | 0.00 | 0.00 | 85 | 1024.4 |
| 20260831024920 | 73 | 0 | 0.0 | 2.0 | 0.00 | 0.00 | 0.00 | 85 | 1024.5 |
| 20260831024421 | 73 | 0 | 0.0 | 1.0 | 0.00 | 0.00 | 0.00 | 85 | 1024.6 |
| 20260831023924 | 73 | 0 | 0.0 | 3.0 | 0.00 | 0.00 | 0.00 | 84 | 1024.6 |
| 20260831023424 | 73 | 0 | 0.0 | 3.0 | 0.00 | 0.00 | 0.00 | 85 | 1024.7 |
| 20260831022922 | 73 | 0 | 0.0 | 2.0 | 0.00 | 0.00 | 0.00 | 84 | 1024.7 |
| 20260831022421 | 74 | 0 | 0.0 | 1.0 | 0.00 | 0.00 | 0.00 | 84 | 1024.7 |
| 20260831021921 | 74 | 0 | 0.0 | 6.0 | 0.00 | 0.00 | 0.00 | 84 | 1024.6 |
| 20260831021421 | 74 | 0 | 0.0 | 6.0 | 0.00 | 0.00 | 0.00 | 84 | 1024.5 |
| 20260831020921 | 74 | 0 | 0.0 | 6.0 | 0.00 | 0.00 | 0.00 | 84 | 1024.5 |
| 20260831020422 | 74 | 0 | 0.0 | 5.0 | 0.00 | 0.00 | 0.00 | 84 | 1024.4 |
| 20260831015921 | 74 | 0 | 0.0 | 5.0 | 0.00 | 0.00 | 0.00 | 84 | 1024.5 |
| 20260831015421 | 74 | 0 | 0.0 | 5.0 | 0.00 | 0.00 | 0.00 | 84 | 1024.6 |
| 20260831014921 | 74 | 0 | 0.0 | 5.0 | 0.00 | 0.00 | 0.00 | 84 | 1024.5 |
| 20260831014421 | 74 | 0 | 0.0 | 8.0 | 0.00 | 0.00 | 0.00 | 83 | 1024.5 |
| 20260831013921 | 74 | 194 | 1.0 | 8.0 | 0.00 | 0.00 | 0.00 | 83 | 1024.4 |
| 20260831013421 | 74 | 194 | 1.0 | 6.0 | 0.00 | 0.00 | 0.00 | 83 | 1024.3 |
| 20260831012921 | 74 | 193 | 2.0 | 7.0 | 0.00 | 0.00 | 0.00 | 83 | 1024.3 |
| 20260831012421 | 74 | 193 | 1.0 | 7.0 | 0.00 | 0.00 | 0.00 | 82 | 1024.3 |
| 20260831011923 | 74 | 194 | 2.0 | 7.0 | 0.00 | 0.00 | 0.00 | 82 | 1024.2 |
| 20260831011421 | 74 | 194 | 1.0 | 7.0 | 0.00 | 0.00 | 0.00 | 82 | 1024.1 |
| 20260831010921 | 74 | 194 | 1.0 | 7.0 | 0.00 | 0.00 | 0.00 | 82 | 1024.1 |
| 20260831010420 | 75 | 0 | 0.0 | 7.0 | 0.00 | 0.00 | 0.00 | 82 | 1024.1 |
| 20260831005921 | 75 | 194 | 1.0 | 6.0 | 0.00 | 0.00 | 0.00 | 82 | 1024.0 |
| 20260831005421 | 75 | 194 | 1.0 | 6.0 | 0.00 | 0.00 | 0.00 | 82 | 1024.0 |
| 20260831004924 | 75 | 0 | 0.0 | 3.0 | 0.00 | 0.00 | 0.00 | 82 | 1024.0 |
| 20260831004421 | 75 | 0 | 0.0 | 7.0 | 0.00 | 0.00 | 0.00 | 83 | 1023.9 |
| 20260831003956 | 75 | 0 | 0.0 | 8.0 | 0.00 | 0.00 | 0.00 | 83 | 1023.7 |
| 20260831003921 | 75 | 0 | 0.0 | 8.0 | 0.00 | 0.00 | 0.00 | 83 | 1023.7 |
| 20260831003421 | 75 | 195 | 1.0 | 9.0 | 0.00 | 0.00 | 0.00 | 82 | 1023.7 |
| 20260831002922 | 75 | 195 | 3.0 | 9.0 | 0.00 | 0.00 | 0.00 | 82 | 1023.5 |
| 20260831002421 | 75 | 196 | 1.0 | 9.0 | 0.00 | 0.00 | 0.00 | 82 | 1023.6 |
| 20260831001921 | 75 | 197 | 3.0 | 9.0 | 0.00 | 0.00 | 0.00 | 83 | 1023.6 |
| 20260831001423 | 75 | 198 | 4.0 | 9.0 | 0.00 | 0.00 | 0.00 | 82 | 1023.7 |
| 20260831000921 | 75 | 195 | 4.0 | 9.0 | 0.00 | 0.00 | 0.00 | 82 | 1023.6 |
| 20260831000421 | 75 | 195 | 3.0 | 10.0 | 0.00 | 0.00 | 0.00 | 82 | 1023.6 |
| 20260830235921 | 75 | 195 | 3.0 | 10.0 | 0.00 | 0.00 | 0.00 | 82 | 1023.5 |
| 20260830235102 | 76 | 193 | 6.0 | 9.0 | 0.00 | 0.00 | 0.00 | 81 | 1023.4 |
| 20260830234541 | 76 | 0 | 0.0 | 6.0 | 0.00 | 0.00 | 0.00 | 80 | 1023.7 |
| 20260830234041 | 76 | 0 | 0.0 | 6.0 | 0.00 | 0.00 | 0.00 | 81 | 1023.7 |
| 20260830233541 | 76 | 189 | 1.0 | 5.0 | 0.00 | 0.00 | 0.00 | 81 | 1023.8 |
| 20260830233041 | 76 | 189 | 1.0 | 4.0 | 0.00 | 0.00 | 0.00 | 81 | 1023.8 |
| 20260830232542 | 76 | 0 | 0.0 | 4.0 | 0.00 | 0.00 | 0.00 | 81 | 1023.9 |
| 20260830232041 | 77 | 0 | 0.0 | 4.0 | 0.00 | 0.00 | 0.00 | 81 | 1023.9 |
| 20260830231342 | 77 | 0 | 0.0 | 3.0 | 0.00 | 0.00 | 0.00 | 80 | 1023.9 |
| 20260830230842 | 77 | 0 | 0.0 | 3.0 | 0.00 | 0.00 | 0.00 | 79 | 1023.9 |
| 20260830230344 | 77 | 0 | 0.0 | 2.0 | 0.00 | 0.00 | 0.00 | 79 | 1024.0 |
| 20260830225842 | 77 | 0 | 0.0 | 4.0 | 0.00 | 0.00 | 0.00 | 78 | 1024.0 |
| 20260830225342 | 77 | 0 | 0.0 | 4.0 | 0.00 | 0.00 | 0.00 | 78 | 1024.0 |
| 20260830224842 | 78 | 0 | 0.0 | 2.0 | 0.00 | 0.00 | 0.00 | 77 | 1023.9 |
| 20260830224342 | 78 | 0 | 0.0 | 2.0 | 0.00 | 0.00 | 0.00 | 77 | 1023.9 |
| 20260830223842 | 78 | 0 | 0.0 | 5.0 | 0.00 | 0.00 | 0.00 | 77 | 1023.9 |
| 20260830223342 | 78 | 0 | 0.0 | 5.0 | 0.00 | 0.00 | 0.00 | 77 | 1023.8 |
| 20260830222842 | 78 | 0 | 0.0 | 4.0 | 0.00 | 0.00 | 0.00 | 76 | 1023.7 |
| 20260830222342 | 78 | 0 | 0.0 | 7.0 | 0.00 | 0.00 | 0.00 | 76 | 1023.7 |
| 20260830221846 | 78 | 189 | 1.0 | 8.0 | 0.00 | 0.00 | 0.00 | 75 | 1023.7 |
| 20260830221343 | 79 | 189 | 1.0 | 8.0 | 0.00 | 0.00 | 0.00 | 75 | 1023.7 |
| 20260830220842 | 79 | 0 | 0.0 | 6.0 | 0.00 | 0.00 | 0.00 | 74 | 1023.7 |
| 20260830220343 | 79 | 0 | 0.0 | 6.0 | 0.00 | 0.00 | 0.00 | 74 | 1023.7 |
| 20260830215842 | 79 | 189 | 1.0 | 7.0 | 0.00 | 0.00 | 0.00 | 74 | 1023.7 |
| 20260830215342 | 80 | 189 | 1.0 | 7.0 | 0.00 | 0.00 | 0.00 | 74 | 1023.7 |
| 20260830214842 | 80 | 0 | 0.0 | 8.0 | 0.00 | 0.00 | 0.00 | 74 | 1023.8 |
| 20260830214342 | 80 | 189 | 1.0 | 8.0 | 0.00 | 0.00 | 0.00 | 73 | 1023.7 |
| 20260830213843 | 80 | 188 | 1.0 | 7.0 | 0.00 | 0.00 | 0.00 | 73 | 1023.7 |
| 20260830213344 | 80 | 188 | 2.0 | 7.0 | 0.00 | 0.00 | 0.00 | 73 | 1023.7 |
| 20260830212844 | 80 | 188 | 2.0 | 10.0 | 0.00 | 0.00 | 0.00 | 73 | 1023.7 |
| 20260830212342 | 80 | 187 | 1.0 | 10.0 | 0.00 | 0.00 | 0.00 | 72 | 1023.7 |
| 20260830211843 | 81 | 173 | 3.0 | 9.0 | 0.00 | 0.00 | 0.00 | 71 | 1023.7 |
| 20260830211342 | 81 | 173 | 4.0 | 9.0 | 0.00 | 0.00 | 0.00 | 72 | 1023.7 |
| 20260830210844 | 81 | 173 | 1.0 | 7.0 | 0.00 | 0.00 | 0.00 | 70 | 1023.8 |
| 20260830210331 | 80 | 173 | 2.0 | 7.0 | 0.00 | 0.00 | 0.00 | 70 | 1023.8 |
| 20260830205603 | 80 | 173 | 1.0 | 8.0 | 0.00 | 0.00 | 0.00 | 72 | 1023.7 |
| 20260830205103 | 80 | 173 | 3.0 | 8.0 | 0.00 | 0.00 | 0.00 | 69 | 1023.8 |
| 20260830204603 | 81 | 173 | 3.0 | 8.0 | 0.00 | 0.00 | 0.00 | 69 | 1023.8 |
| 20260830204105 | 81 | 173 | 2.0 | 8.0 | 0.00 | 0.00 | 0.00 | 70 | 1023.8 |
| 20260830203603 | 81 | 173 | 3.0 | 9.0 | 0.00 | 0.00 | 0.00 | 71 | 1023.8 |
| 20260830203103 | 81 | 173 | 4.0 | 9.0 | 0.00 | 0.00 | 0.00 | 68 | 1024.0 |
| 20260830202603 | 82 | 173 | 5.0 | 9.0 | 0.00 | 0.00 | 0.00 | 67 | 1024.0 |
| 20260830202103 | 82 | 175 | 2.0 | 8.0 | 0.00 | 0.00 | 0.00 | 70 | 1023.9 |
| 20260830201603 | 81 | 0 | 0.0 | 7.0 | 0.00 | 0.00 | 0.00 | 69 | 1024.0 |
| 20260830201103 | 81 | 177 | 3.0 | 7.0 | 0.00 | 0.00 | 0.00 | 69 | 1024.0 |
| 20260830200603 | 81 | 177 | 4.0 | 8.0 | 0.00 | 0.00 | 0.00 | 68 | 1024.0 |
| 20260830200103 | 81 | 177 | 5.0 | 8.0 | 0.00 | 0.00 | 0.00 | 68 | 1024.1 |
| 20260830195603 | 81 | 174 | 3.0 | 7.0 | 0.00 | 0.00 | 0.00 | 68 | 1024.2 |
| 20260830195103 | 81 | 174 | 2.0 | 7.0 | 0.00 | 0.00 | 0.00 | 68 | 1024.3 |
| 20260830194603 | 82 | 174 | 3.0 | 7.0 | 0.00 | 0.00 | 0.00 | 69 | 1024.3 |
| 20260830194104 | 82 | 174 | 1.0 | 7.0 | 0.00 | 0.00 | 0.00 | 69 | 1024.4 |
| 20260830193603 | 82 | 174 | 3.0 | 8.0 | 0.00 | 0.00 | 0.00 | 68 | 1024.4 |
| 20260830193103 | 82 | 0 | 0.0 | 9.0 | 0.00 | 0.00 | 0.00 | 69 | 1024.4 |
| 20260830192603 | 83 | 174 | 4.0 | 9.0 | 0.00 | 0.00 | 0.00 | 68 | 1024.4 |
| 20260830192103 | 83 | 182 | 2.0 | 6.0 | 0.00 | 0.00 | 0.00 | 69 | 1024.5 |
| 20260830191604 | 83 | 0 | 0.0 | 5.0 | 0.00 | 0.00 | 0.00 | 68 | 1024.5 |
| 20260830191103 | 83 | 182 | 2.0 | 5.0 | 0.00 | 0.00 | 0.00 | 68 | 1024.7 |
| 20260830190603 | 82 | 182 | 1.0 | 6.0 | 0.00 | 0.00 | 0.00 | 71 | 1024.7 |
| 20260830185603 | 82 | 182 | 3.0 | 5.0 | 0.00 | 0.00 | 0.00 | 70 | 1024.8 |
| 20260830185103 | 82 | 183 | 1.0 | 5.0 | 0.00 | 0.00 | 0.00 | 70 | 1024.9 |
| 20260830184542 | 82 | 185 | 4.0 | 7.0 | 0.00 | 0.00 | 0.00 | 68 | 1025.0 |